Estación de Odessa

Ultimos registro cada 15 minutos 72
Estación Fecha / Hora Temperatura Humedad Lluvia Velocidad Dirección Radiación Presion
72 Odessa 02-05-2026 17:45 15,4 71 0 0 187 5 1017,8
71 Odessa 02-05-2026 17:30 16,1 70 0 0 187 12 1018
70 Odessa 02-05-2026 17:15 16,1 68 0 0 187 35 1018,2
69 Odessa 02-05-2026 17:00 16,2 66 0 0 211 74 1018,2
68 Odessa 02-05-2026 16:45 16,3 67 0 0 210 109 1018,1
67 Odessa 02-05-2026 16:30 16,2 67 0 1,3 173 185 1018,1
66 Odessa 02-05-2026 16:15 16,1 67 0 1,3 214 236 1018,3
65 Odessa 02-05-2026 16:00 15,9 66 0 0,9 230 279 1018,4
64 Odessa 02-05-2026 15:45 15,6 67 0 0,9 168 322 1018,3
63 Odessa 02-05-2026 15:30 15,6 69 0 0,4 228 359 1018,4
62 Odessa 02-05-2026 15:15 15,2 68 0 1,8 201 397 1018,3
61 Odessa 02-05-2026 15:00 14,8 73 0 1,3 152 431 1018,3
60 Odessa 02-05-2026 14:45 14,6 74 0 0,4 251 462 1018,3
59 Odessa 02-05-2026 14:30 14,1 74 0 1,8 215 496 1018,2
58 Odessa 02-05-2026 14:15 13,6 73 0 1,3 211 526 1018,3
57 Odessa 02-05-2026 14:00 13,3 78 0 1,8 234 547 1018,4
56 Odessa 02-05-2026 13:45 12,7 79 0 0,9 160 568 1018,7
55 Odessa 02-05-2026 13:30 12,5 80 0 1,3 217 585 1018,6
54 Odessa 02-05-2026 13:15 11,8 82 0 0,4 214 598 1019
53 Odessa 02-05-2026 13:00 11,1 88 0 1,8 127 610 1019,2
52 Odessa 02-05-2026 12:45 9,9 96 0 0,9 240 613 1019,5
51 Odessa 02-05-2026 12:30 9 96 0 1,8 218 615 1019,7
50 Odessa 02-05-2026 12:15 8,4 97 0 1,8 243 617 1019,9
49 Odessa 02-05-2026 12:00 7,6 96 0 0,4 266 612 1020,1
48 Odessa 02-05-2026 11:45 7 96 0 0,4 102 680 1020,1
47 Odessa 02-05-2026 11:30 6,4 96 0 0 114 626 1020,3
46 Odessa 02-05-2026 11:15 6 96 0 1,8 155 176 1020,7
45 Odessa 02-05-2026 11:00 5,6 96 0 0 203 163 1021,1
44 Odessa 02-05-2026 10:45 5,4 96 0 0,4 264 160 1021,2
43 Odessa 02-05-2026 10:30 5,1 96 0 1,8 256 181 1021,2
42 Odessa 02-05-2026 10:15 4,9 96 0 0,4 218 121 1021,2
41 Odessa 02-05-2026 10:00 4,8 96 0 0,4 195 113 1021,6
40 Odessa 02-05-2026 09:45 4,7 95 0 0 245 91 1021,6
39 Odessa 02-05-2026 09:30 4,6 95 0 0 253 102 1021,5
38 Odessa 02-05-2026 09:15 4,6 95 0 0,9 235 83 1021,6
37 Odessa 02-05-2026 09:00 4,6 95 0 0,9 256 63 1021,6
36 Odessa 02-05-2026 08:45 4,8 95 0 0,4 262 49 1021,5
35 Odessa 02-05-2026 08:30 4,7 95 0 0 217 47 1021,4
34 Odessa 02-05-2026 08:15 4,8 95 0 0,4 191 33 1021,4
33 Odessa 02-05-2026 08:00 4,7 95 0 0,4 260 19 1021,5
32 Odessa 02-05-2026 07:45 4,7 95 0 0 205 9 1021,3
31 Odessa 02-05-2026 07:30 4,6 95 0 0,4 232 0 1021,4
30 Odessa 02-05-2026 07:15 4,8 95 0 0,4 247 0 1021,3
29 Odessa 02-05-2026 07:00 4,9 95 0 1,3 212 0 1021,3
28 Odessa 02-05-2026 06:45 5,1 95 0 1,3 242 0 1021,1
27 Odessa 02-05-2026 06:30 5,1 95 0 0 207 0 1021,1
26 Odessa 02-05-2026 06:15 5,1 95 0 0,9 218 0 1021,2
25 Odessa 02-05-2026 06:00 5,1 95 0 0 231 0 1021,1
24 Odessa 02-05-2026 05:45 5,2 95 0 0,4 239 0 1021,4
23 Odessa 02-05-2026 05:30 5,3 95 0 0,4 226 0 1021,4
22 Odessa 02-05-2026 05:15 5,4 95 0 1,3 164 0 1021,4
21 Odessa 02-05-2026 05:00 5,5 95 0 0,9 198 0 1021,4
20 Odessa 02-05-2026 04:45 5,5 95 0 1,3 241 0 1021,5
19 Odessa 02-05-2026 04:30 5,4 95 0 0,9 229 0 1021,7
18 Odessa 02-05-2026 04:15 5,2 95 0 0 212 0 1021,9
17 Odessa 02-05-2026 04:00 5,2 94 0 0 177 0 1022
16 Odessa 02-05-2026 03:45 5,1 94 0 0 201 0 1022
15 Odessa 02-05-2026 03:30 5,3 94 0 0 201 0 1022,2
14 Odessa 02-05-2026 03:15 5,5 94 0 0 201 0 1022,5
13 Odessa 02-05-2026 03:00 5,6 94 0 0 201 0 1022,5
12 Odessa 02-05-2026 02:45 5,9 94 0 0 191 0 1022,6
11 Odessa 02-05-2026 02:30 5,9 94 0 0 201 0 1022,7
10 Odessa 02-05-2026 02:15 5,8 93 0 0 177 0 1022,9
9 Odessa 02-05-2026 02:00 6,3 93 0 0 177 0 1023
8 Odessa 02-05-2026 01:45 6,7 94 0 0 213 0 1023
7 Odessa 02-05-2026 01:30 6,9 94 0 0 218 0 1023
6 Odessa 02-05-2026 01:15 6,7 94 0 0 211 0 1023,1
5 Odessa 02-05-2026 01:00 6,4 93 0 0 194 0 1023,3
4 Odessa 02-05-2026 00:45 6,9 93 0 0 194 0 1023,7
3 Odessa 02-05-2026 00:30 7,1 93 0 0 194 0 1023,9
2 Odessa 02-05-2026 00:15 7,2 93 0 0 194 0 1024
1 Odessa 02-05-2026 00:00 7,1 92 0 0 143 0 1024,2